Location: Newark
(44.4156°N, 12.1972°E)
Time: 09:41:01
(UTC+00:00)

STARLINK-1093 - Pass Details

Date: 29 January 2020
Orbit: 349 x 351 km, 53.0° (Epoch: 18 February)

Event Time Altitude Azimuth Distance (km) Brightness Sun altitude
Rises 17:40:42 0° 306° (NW) 2,170 7.4 -15.3°
Reaches altitude 10° 17:42:47 10° 314° (NW) 1,325 6.1 -15.7°
Maximum altitude 17:45:37 40° 27° (NNE) 533 3.2 -16.2°
Enters shadow 17:45:42 40° 33° (NNE) 534 3.2 -16.2°
